Tracking 25710 objects as of 7-Jul-2022
HD Live streaming from Space Station
objects crossing your sky now

FENGYUN 1C DEB

Track FENGYUN 1C DEB now!
10-day predictions


NORAD ID: 31012
Int'l Code: 1999-025BDE
Perigee: 752.1 km
Apogee: 871.8 km
Inclination: 99.1 °
Period: 101.0 minutes
Semi major axis: 7182 km
RCS: 0.0146 m2 (small)
Launch date: May 10, 1999
Source: People's Republic of China (PRC)
Launch site: Taiyaun Space Center, China (TSC)

Note: This is SATELLITE DEBRIS
aabbcc
Your satellite tracking list
Your tracking list is empty




NASA's NSSDC Master Catalog

Two Line Element Set (TLE):
1 31012U 99025BDE 22187.53462515  .00000140  00000-0  75737-4 0  9991
2 31012  99.0670  35.9466 0083336 278.9926 145.6563 14.26102827798477
Source of the keplerian elements: AFSPC